This is the latest recevied weather packets stored in our database for station/object AB1AU. If no packets are shown the sender has not sent any weather packets the latest 10 day(s).
| Time | Temp. | Humidity | Pressure | Rain* | Wind** | Luminosity | Snow |
|---|---|---|---|---|---|---|---|
| 1777846183 | 11.11° C | 43% | 1003.8 hPa | 0 mm | - | 40 W/m² | - |
| 1777845879 | 11.11° C | 41% | 1003.9 hPa | 0 mm | - | 46 W/m² | - |
| 1777845577 | 11.11° C | 42% | 1003.8 hPa | 0 mm | - | 52 W/m² | - |
| 1777845273 | 11.11° C | 43% | 1003.7 hPa | 0 mm | - | 54 W/m² | - |
| 1777844971 | 11.11° C | 43% | 1003.5 hPa | 0 mm | - | 56 W/m² | - |
| 1777844669 | 11.67° C | 41% | 1003.4 hPa | 0 mm | - | 63 W/m² | - |
| 1777844366 | 11.67° C | 44% | 1003.6 hPa | 0 mm | - | 71 W/m² | - |
| 1777844064 | 11.67° C | 42% | 1003.5 hPa | 0 mm | - | 78 W/m² | - |
| 1777843760 | 11.67° C | 43% | 1003.5 hPa | 0 mm | - | 68 W/m² | - |
| 1777843458 | 11.67° C | 46% | 1003.5 hPa | 0 mm | - | 61 W/m² | - |
| 1777843155 | 11.67° C | 45% | 1003.5 hPa | 0 mm | - | 70 W/m² | - |
| 1777842852 | 11.67° C | 44% | 1003.7 hPa | 0 mm | - | 120 W/m² | - |
| 1777842548 | 11.67° C | 47% | 1003.6 hPa | 0 mm | - | 121 W/m² | - |
| 1777842245 | 11.67° C | 52% | 1003.6 hPa | 0 mm | - | 119 W/m² | - |
| 1777841944 | 11.11° C | 48% | 1003.6 hPa | 0 mm | - | 158 W/m² | - |
| 1777841642 | 11.11° C | 48% | 1003.6 hPa | 0 mm | - | 107 W/m² | - |
| 1777841338 | 11.11° C | 48% | 1003.5 hPa | 0 mm | - | 87 W/m² | - |
| 1777841035 | 11.67° C | 50% | 1003.6 hPa | 0 mm | - | 98 W/m² | - |
| 1777840733 | 11.67° C | 50% | 1003.9 hPa | 0 mm | - | 115 W/m² | - |
| 1777840430 | 11.67° C | 52% | 1003.8 hPa | 0 mm | - | 156 W/m² | - |
| 1777840126 | 11.11° C | 52% | 1003.8 hPa | 0 mm | - | 199 W/m² | - |
| 1777839825 | 11.11° C | 58% | 1003.8 hPa | 0 mm | - | 225 W/m² | - |
| 1777839523 | 11.11° C | 59% | 1003.7 hPa | 0 mm | - | 171 W/m² | - |
| 1777839220 | 11.11° C | 63% | 1003.9 hPa | 0 mm | - | 182 W/m² | - |
| 1777838917 | 10.56° C | 66% | 1004.2 hPa | 0 mm | - | 192 W/m² | - |
* Rain latest hour (hover to see other rain measurements)
** Current wind speed in m/s (hover to see current wind gust speed)